Weather History for Deming, NM

Change the Weather History Date:

Friday, March 8, 2013

  Actual Average Record
Temperature  
Mean Temperature 50 °F 50 °F  
Max Temperature 62 °F 66 °F 86 °F (1960)
Min Temperature 37 °F 34 °F 18 °F (1956)
Degree Days  
Heating Degree Days 16    
Moisture  
Dew Point 33 °F    
Average Humidity 50    
Maximum Humidity 72    
Minimum Humidity 28    
Precipitation  
Precipitation 0.19 in 0.01 in 0.57 in (1968)
Month to date precipitation 0.19 0.16  
Year to date precipitation 0.48 1.36  
Sea Level Pressure  
Sea Level Pressure 29.80 in    
Wind  
Wind Speed 11 mph (West)    
Max Wind Speed 28 mph    
Max Gust Speed 37 mph    
Visibility 10 miles    
Events Rain    
T = Trace of Precipitation, MM = Missing Value Source: NWS Daily Summary

Daily Weather History Graph

Daily Weather History Graph

Search for Another Location

Airport:

Trip Planner

Search our weather history database for the weather conditions in past years. The results will help you decide how hot, cold, wet, or windy it might be!

Date:

Astronomy

Mar. 08, 2013 Rise Set
Actual Time 6:29 AM MST 6:14 PM MST
Civil Twilight 6:05 AM MST 6:38 PM MST
Nautical Twilight 5:36 AM MST 7:06 PM MST
Astronomical Twilight 5:08 AM MST 7:35 PM MST
Moon 4:06 AM MST (3/8) 3:20 PM MST (3/8)
Length of Visible Light 12h 33m
Length of Day
11h 44m
Waning Crescent, 11% of the Moon is Illuminated
Mar 8
Waning Crescent
Mar 11
New
Mar 19
First Quarter
Mar 27
Full
Apr 2
Last Quarter

Hourly Weather History & Observations

Time (MST) Temp. Windchill Dew Point Humidity Pressure Visibility Wind Dir Wind Speed Gust Speed Precip Events Conditions
12:53 AM 46.9 °F - 19.0 °F 33% 29.86 in 10.0 mi Calm Calm - N/A   Clear
1:53 AM 45.0 °F 42.6 °F 19.9 °F 37% 29.86 in 10.0 mi West 4.6 mph - N/A   Clear
2:53 AM 45.0 °F 43.5 °F 21.9 °F 40% 29.84 in 10.0 mi West 3.5 mph - N/A   Clear
3:53 AM 39.9 °F 35.8 °F 18.0 °F 41% 29.85 in 10.0 mi WNW 5.8 mph - N/A   Clear
4:53 AM 39.0 °F 34.8 °F 17.1 °F 41% 29.85 in 10.0 mi WNW 5.8 mph - N/A   Clear
5:53 AM 39.9 °F 35.8 °F 16.0 °F 38% 29.86 in 10.0 mi NW 5.8 mph - N/A   Clear
6:53 AM 42.1 °F - 16.0 °F 35% 29.86 in 10.0 mi Calm Calm - N/A   Mostly Cloudy
8:53 AM 55.0 °F - 25.0 °F 31% 29.84 in 10.0 mi South 5.8 mph - N/A   Overcast
9:53 AM 60.1 °F - 28.9 °F 31% 29.82 in 10.0 mi SW 9.2 mph - N/A   Overcast
10:53 AM 59.0 °F - 37.0 °F 44% 29.83 in 10.0 mi SSW 18.4 mph 25.3 mph 0.00 in Rain Light Rain
11:53 AM 55.0 °F - 46.9 °F 74% 29.83 in 10.0 mi West 10.4 mph - 0.02 in Rain Light Rain
12:53 PM 60.1 °F - 44.1 °F 55% 29.79 in 10.0 mi WSW 13.8 mph - 0.00 in   Mostly Cloudy
1:53 PM 57.0 °F - 45.0 °F 64% 29.77 in 10.0 mi SW 11.5 mph 23.0 mph 0.00 in Rain Light Rain
2:53 PM 60.1 °F - 42.1 °F 51% 29.73 in 10.0 mi West 12.7 mph 24.2 mph 0.01 in Rain Light Rain
3:03 PM 59.0 °F - 41.0 °F 51% 29.84 in 10.0 mi WSW 20.7 mph 27.6 mph 0.00 in   Overcast
3:33 PM 53.6 °F - 44.6 °F 72% 29.86 in 2.5 mi West 23.0 mph 32.2 mph 0.15 in Rain Light Rain
3:41 PM 55.4 °F - 44.6 °F 67% 29.85 in 8.0 mi West 19.6 mph 31.1 mph 0.15 in Rain Light Rain
3:53 PM 55.9 °F - 45.0 °F 67% 29.76 in 10.0 mi West 23.0 mph 31.1 mph 0.15 in   Scattered Clouds
4:53 PM 55.9 °F - 42.1 °F 60% 29.75 in 9.0 mi WSW 26.5 mph 32.2 mph 0.01 in Rain Light Rain
5:53 PM 54.0 °F - 39.0 °F 57% 29.75 in 10.0 mi WSW 19.6 mph 32.2 mph 0.00 in   Partly Cloudy
6:53 PM 53.1 °F - 35.1 °F 50% 29.75 in 10.0 mi WSW 20.7 mph 27.6 mph N/A   Scattered Clouds
7:53 PM 51.1 °F - 36.0 °F 56% 29.73 in 10.0 mi West 10.4 mph 25.3 mph N/A   Mostly Cloudy
8:53 PM 48.0 °F - 37.9 °F 68% 29.74 in 10.0 mi WNW 11.5 mph - N/A   Mostly Cloudy
9:53 PM 46.0 °F 39.9 °F 36.0 °F 68% 29.74 in 10.0 mi WNW 13.8 mph - N/A   Mostly Cloudy
10:53 PM 44.1 °F 35.7 °F 36.0 °F 73% 29.76 in 10.0 mi West 20.7 mph 24.2 mph N/A   Clear
11:53 PM 43.0 °F 34.2 °F 35.1 °F 74% 29.80 in 10.0 mi WNW 20.7 mph 28.8 mph 0.00 in Rain Light Rain